TimeCDT,TemperatureF,Dew PointF,Humidity,Sea Level PressureIn,VisibilityMPH,Wind Direction,Wind SpeedMPH,Gust SpeedMPH,PrecipitationIn,Events,Conditions,WindDirDegrees,DateUTC
12:53 AM,80.1,59.0,48,29.99,10.0,SE,6.9,-,N/A,,Clear,130,2013-08-11 05:53:00
1:53 AM,79.0,60.1,52,29.96,10.0,East,4.6,-,N/A,,Clear,100,2013-08-11 06:53:00
2:53 AM,78.1,60.1,54,29.96,10.0,SE,8.1,-,N/A,,Clear,130,2013-08-11 07:53:00
3:53 AM,75.9,61.0,60,29.96,10.0,ESE,4.6,-,N/A,,Clear,120,2013-08-11 08:53:00
4:53 AM,73.9,62.1,66,29.96,10.0,ESE,8.1,-,N/A,,Clear,110,2013-08-11 09:53:00
5:53 AM,73.0,62.1,68,29.97,10.0,East,4.6,-,N/A,,Clear,100,2013-08-11 10:53:00
6:53 AM,72.0,62.1,71,29.99,10.0,ESE,5.8,-,N/A,,Clear,110,2013-08-11 11:53:00
7:53 AM,73.0,63.0,71,30.01,10.0,East,4.6,-,N/A,,Scattered Clouds,80,2013-08-11 12:53:00
8:53 AM,75.9,63.0,64,30.02,10.0,East,4.6,-,N/A,,Partly Cloudy,90,2013-08-11 13:53:00
9:53 AM,81.0,64.0,56,30.03,10.0,East,5.8,-,N/A,,Mostly Cloudy,90,2013-08-11 14:53:00
10:53 AM,81.0,64.0,56,30.02,10.0,ESE,4.6,-,N/A,,Clear,110,2013-08-11 15:53:00
11:53 AM,82.0,63.0,52,30.02,10.0,South,3.5,-,N/A,,Clear,170,2013-08-11 16:53:00
12:53 PM,89.1,61.0,39,29.99,10.0,South,9.2,-,N/A,,Clear,190,2013-08-11 17:53:00
1:53 PM,91.9,57.9,32,29.97,10.0,Variable,6.9,16.1,N/A,,Partly Cloudy,0,2013-08-11 18:53:00
2:53 PM,91.9,59.0,33,29.95,10.0,SSW,6.9,-,N/A,,Partly Cloudy,200,2013-08-11 19:53:00
3:53 PM,93.0,57.0,30,29.93,10.0,South,8.1,-,0.00,,Clear,180,2013-08-11 20:53:00
4:53 PM,95.0,55.9,27,29.89,10.0,Variable,3.5,-,N/A,,Scattered Clouds,0,2013-08-11 21:53:00
5:53 PM,93.9,55.0,27,29.88,10.0,SSE,11.5,-,N/A,,Clear,160,2013-08-11 22:53:00
6:53 PM,93.0,55.0,28,29.88,10.0,SSE,9.2,-,N/A,,Clear,160,2013-08-11 23:53:00
7:53 PM,93.0,54.0,27,29.88,10.0,ESE,11.5,-,N/A,,Clear,110,2013-08-12 00:53:00
8:53 PM,91.0,55.9,30,29.88,10.0,ESE,13.8,19.6,N/A,,Scattered Clouds,120,2013-08-12 01:53:00
9:53 PM,87.1,55.9,35,29.90,10.0,ESE,5.8,-,N/A,,Clear,110,2013-08-12 02:53:00
10:53 PM,82.9,60.1,46,29.94,10.0,ENE,10.4,-,N/A,,Clear,70,2013-08-12 03:53:00
11:53 PM,81.0,60.1,49,29.93,10.0,East,5.8,-,N/A,,Clear,80,2013-08-12 04:53:00